Regional Weather Roundup
Issued by NWS

Home | Current Version | Previous Version | Text Only | Print | Product List | Glossary On
Versions: 1 2 3 4 5 6 7 8 9 10 11 12 13 14 15 16 17 18 19 20 21 22 23 24 25 26 27 28 29 30 31 32 33 34 35 36 37 38 39 40 41 42 43 44 45 46 47 48 49 50
000
ASUS43 KTOP 111408
RWRKS

WEATHER ROUNDUP FOR KANSAS
NATIONAL WEATHER SERVICE GOODLAND KS
800 AM CST MON DEC 11 2017

NOTE:  "FAIR" INDICATES FEW OR NO CLOUDS BELOW 12,000 FEET WITH NO
SIGNIFICANT WEATHER AND/OR OBSTRUCTIONS TO VISIBILITY.

KSZ001>006-013>018-027>032-041>047-111500-
NORTHWEST KANSAS

CITY           SKY/WX    TMP DP  RH WIND       PRES   REMARKS
GOODLAND       CLEAR     35   5  28 NW15      30.25S WCI  25
HAYS           CLEAR     38  10  31 NW12      30.18R WCI  30
HILL CITY      PTCLDY    44  12  27 W9        30.19R
RUSSELL        CLEAR     38  13  35 NW15      30.14S WCI  29
$$

KSZ061>065-074>080-084>089-111500-
SOUTHWEST KANSAS

CITY           SKY/WX    TMP DP  RH WIND       PRES   REMARKS
DODGE CITY     CLOUDY    35   6  29 NW12      30.22R WCI  27
ELKHART        CLOUDY    38   9  30 NW12      30.29R WCI  31
GARDEN CITY    CLOUDY    26   6  42 W12       30.23R WCI  16
GREAT BEND     CLEAR     38   9  30 NW13      30.18R WCI  30
LIBERAL        CLOUDY    29   8  41 NW13      30.27R WCI  19
PRATT          CLEAR     35   6  30 NW15      30.18R WCI  25
$$

KSZ066>073-081>083-090>101-111500-
SOUTHEAST KANSAS

CITY           SKY/WX    TMP DP  RH WIND       PRES   REMARKS
CHANUTE        CLEAR     40  17  39 W9        30.06F
COFFEYVILLE    CLEAR     39  21  48 SW8       30.10F
HUTCHINSON     CLEAR     34  11  38 NW12      30.14R WCI  25
MEDICINE LODGE   N/A     32  12  43 NW7       30.17S
NEWTON         CLEAR     37  11  34 W13       30.12R WCI  29
PARSONS        CLEAR     27  21  78 S6        30.08F
WICHITA INTL   PTCLDY    45  11  25 NW12      30.11S
WICHITA JABRA  CLEAR     44  10  25 W14       30.11S
WICHITA MCCONL CLEAR     45  10  24 NW12      30.10F
WINFIELD       CLOUDY    29  17  61 CALM      30.14F
$$

KSZ007>012-019>026-033>040-048>060-102>105-111500-
NORTHEAST KANSAS

CITY           SKY/WX    TMP DP  RH WIND       PRES   REMARKS
CONCORDIA      CLOUDY    39  14  36 W14       30.08R WCI  31
EMPORIA        CLEAR     39  13  34 W13       30.08R WCI  31
LAWRENCE       CLOUDY    34  20  56 NW6       30.01R
MANHATTAN      CLEAR     31  16  54 SW7       30.06F
MARYSVILLE     CLOUDY    43  18  36 NW12      30.02S
OLATHE IND     CLOUDY    37  19  48 W9        30.00R
OLATHE EXE     CLOUDY    39  18  42 W9        29.98S
SALINA         CLEAR     41  14  33 NW13      30.12R
TOPEKA BILLARD CLEAR     37  19  48 W10       30.03R WCI  30
TOPEKA FORBES  CLEAR     44  16  32 W15       30.02R
$$




USA.gov is the U.S. government's official web portal to all federal, state and local government web resources and services.